Flag for Australia Weather past 2 weeks in Cairns, Queensland, Australia

Now
73 °F

Passing clouds.


Feels Like: 76 °F
Forecast: 72 / 83 °F
Wind: 9 mph from South

Location: Cairns Airport

Current Time: Apr 28, 2015 at 10:32:16 PM

Latest Report: Apr 28, 2015 at 10:00 PM


Visibility: N/A

Pressure: 30.04 "Hg

Humidity: 65%

Dew point: 61 °F

Location of CairnsLocation

Historic Weather in Cairns — Graph

°F

Cairns temperature yesterday

Maximum temperature yesterday: 84 °F (at 12:00 PM)
Minimum temperature yesterday: 61 °F (at 3:30 AM)
Average temperature yesterday: 73 °F

Past Weeks' High & Low Weather Summary

 TemperatureHumidityPressure
High88 °F (Apr 19, 3:00 PM)100% (Apr 14, 4:30 PM)30.09 "Hg (Apr 14, 4:30 PM)
Low61 °F (Apr 27, 3:30 AM)25% (Apr 26, 12:00 PM)29.77 "Hg (Apr 23, 3:00 PM)
Average76 °F73%29.94 "Hg
* Reported Apr 13 9:00 PM — Apr 28 9:30 PM, Cairns, Weather by CustomWeather, © 2015

Note: Actual official high and low records may vary slightly from our data, if they occured in-between our weather recording intervals... More about our weather records

Advertising

Cairns weather history for previous 24 hours

 ConditionsComfort  
Time TempWeatherWind HumidityBarometerVisibility
9:30 PM
Tue, Apr 28
75 °FPassing clouds.9 mph61%30.04 "HgN/A
9:00 PM73 °FPassing clouds.8 mph65%30.04 "HgN/A
8:30 PM73 °FPassing clouds.10 mph65%30.04 "HgN/A
8:00 PM75 °FPassing clouds.8 mph61%30.04 "HgN/A
7:30 PM75 °FPassing clouds.9 mph61%30.01 "HgN/A
7:00 PM75 °FPassing clouds.10 mph61%30.01 "HgN/A
6:30 PM77 °FPassing clouds.14 mph57%29.98 "HgN/A
6:00 PM77 °FPassing clouds.17 mph61%29.98 "HgN/A
5:30 PM77 °FScattered clouds.17 mph57%29.98 "HgN/A
5:00 PM79 °FScattered clouds.17 mph54%29.98 "HgN/A
4:30 PM79 °FPassing clouds.18 mph54%29.95 "HgN/A
4:00 PM81 °FPassing clouds.18 mph51%29.95 "HgN/A
3:30 PM82 °FPassing clouds.20 mph48%29.92 "HgN/A
3:00 PM82 °FPassing clouds.21 mph45%29.92 "HgN/A
2:30 PM82 °FPassing clouds.21 mph45%29.92 "HgN/A
1:30 PM82 °FPassing clouds.20 mph45%29.95 "HgN/A
1:00 PM82 °FPassing clouds.21 mph45%29.98 "HgN/A
12:30 PM82 °FPassing clouds.21 mph45%29.98 "HgN/A
12:00 PM82 °FPassing clouds.18 mph45%30.01 "HgN/A
11:00 AM82 °FPassing clouds.18 mph48%30.04 "HgN/A
10:30 AM81 °FPassing clouds.15 mph48%30.04 "HgN/A
10:00 AM79 °FPassing clouds.12 mph51%30.04 "HgN/A
9:30 AM77 °FPassing clouds.10 mph54%30.04 "HgN/A
9:00 AM77 °FPassing clouds.12 mph54%30.04 "HgN/A
8:30 AM73 °FPassing clouds.12 mph61%30.04 "HgN/A
8:00 AM70 °FPassing clouds.13 mph69%30.04 "HgN/A
7:00 AM66 °FPassing clouds.15 mph78%30.04 "HgN/A
6:30 AM66 °FPassing clouds.10 mph78%30.01 "HgN/A
6:00 AM66 °FPassing clouds.10 mph78%30.01 "HgN/A
5:30 AM64 °FPassing clouds.6 mph83%30.01 "HgN/A
5:00 AM66 °FPassing clouds.12 mph78%30.01 "HgN/A
4:00 AM66 °FPassing clouds.8 mph73%29.98 "HgN/A
3:30 AM68 °FClear.10 mph69%29.98 "HgN/A
3:00 AM66 °FPassing clouds.12 mph73%29.98 "HgN/A
2:30 AM64 °FPassing clouds.10 mph83%29.98 "HgN/A
2:00 AM64 °FPassing clouds.12 mph83%30.01 "HgN/A
1:30 AM64 °FPassing clouds.12 mph83%30.01 "HgN/A
1:00 AM66 °FPassing clouds.12 mph73%30.01 "HgN/A
12:30 AM68 °FPassing clouds.13 mph69%30.04 "HgN/A
12:00 AM68 °FPassing clouds.13 mph69%30.04 "HgN/A
11:30 PM
Mon, Apr 27
70 °FPassing clouds.13 mph64%30.04 "HgN/A
11:00 PM68 °FPassing clouds.12 mph69%30.04 "HgN/A
10:30 PM70 °FPassing clouds.10 mph64%30.04 "HgN/A
10:00 PM70 °FPassing clouds.13 mph64%30.04 "HgN/A
Weather by CustomWeather, © 2015

See weather overviewHow to use our weather pages